This is the latest recevied weather packets stored in our database for station/object WV5G-13. If no packets are shown the sender has not sent any weather packets the latest 10 day(s).
| Time | Temp. | Humidity | Pressure | Rain* | Wind** | Luminosity | Snow |
|---|---|---|---|---|---|---|---|
| 1777994335 | 12.78° C | 49% | 1008 hPa | 0 mm | - | 236 W/m² | - |
| 1777994033 | 13.33° C | 49% | 1007.7 hPa | 0 mm | - | 321 W/m² | - |
| 1777993729 | 13.33° C | 49% | 1007.4 hPa | 0 mm | - | 407 W/m² | - |
| 1777993427 | 13.33° C | 48% | 1007.2 hPa | 0 mm | - | 321 W/m² | - |
| 1777993121 | 13.33° C | 47% | 1007.6 hPa | 0 mm | - | 306 W/m² | - |
| 1777992819 | 13.33° C | 47% | 1007.6 hPa | 0 mm | - | 296 W/m² | - |
| 1777992516 | 13.33° C | 47% | 1007.7 hPa | 0 mm | - | 366 W/m² | - |
| 1777992216 | 13.33° C | 47% | 1007.9 hPa | 0 mm | - | 380 W/m² | - |
| 1777991912 | 12.78° C | 48% | 1007.7 hPa | 0 mm | - | 310 W/m² | - |
| 1777991609 | 12.78° C | 48% | 1007.6 hPa | 0 mm | - | 213 W/m² | - |
| 1777991306 | 13.33° C | 48% | 1007.7 hPa | 0 mm | - | 289 W/m² | - |
| 1777991004 | 12.78° C | 48% | 1007.4 hPa | 0 mm | - | 332 W/m² | - |
| 1777990701 | 12.78° C | 49% | 1007.2 hPa | 0 mm | - | 256 W/m² | - |
| 1777990398 | 12.78° C | 49% | 1007.6 hPa | 0 mm | - | 331 W/m² | - |
| 1777989791 | 12.22° C | 49% | 1007.6 hPa | 0 mm | - | 184 W/m² | - |
| 1777989488 | 12.22° C | 50% | 1007.7 hPa | 0 mm | - | 221 W/m² | - |
| 1777989183 | 11.67° C | 50% | 1007 hPa | 0 mm | - | 187 W/m² | - |
| 1777988880 | 11.67° C | 51% | 1006.9 hPa | 0 mm | - | 135 W/m² | - |
| 1777988572 | 11.67° C | 51% | 1007 hPa | 0 mm | - | 130 W/m² | - |
| 1777988268 | 11.67° C | 51% | 1006.4 hPa | 0 mm | - | 106 W/m² | - |
| 1777987965 | 11.67° C | 52% | 1006.8 hPa | 0 mm | - | 126 W/m² | - |
| 1777987661 | 11.67° C | 52% | 1006.6 hPa | 0 mm | - | 124 W/m² | - |
| 1777987358 | 11.11° C | 53% | 1006.3 hPa | 0 mm | - | 108 W/m² | - |
| 1777987056 | 11.11° C | 53% | 1006.1 hPa | 0 mm | - | 106 W/m² | - |
| 1777986753 | 11.11° C | 54% | 1005.9 hPa | 0 mm | - | 98 W/m² | - |
* Rain latest hour (hover to see other rain measurements)
** Current wind speed in m/s (hover to see current wind gust speed)